SCP
1 1 1 1 1 1 1 0 0 1 1 0 0 0 0 0 0 0 0 0 0 0 0 0 0 0 0 0 0 0 0 0 0 0 0 0 0 0 0 0 0 0 0
0 0 0 1 1 1 1 0 0 1 0 0 0 0 0 0 0 0 0 0 0 0 0 0 0 0 0 0 0 0 0 0 0 0 0 0 0 0 0 0 0 0 0
0 0 0 0 0 1 0 0 0 0 0 0 0 0 0 0 0 0 0 0 0 0 0 0 0 0 0 0 0 0 0 0 0 0 0 0 0 0 0 0 0 0 0
0 0 0 0 0 0 0 0 0 0 0 0 0 0 0 0 0 0 0 0 0 0 0 0 0 0 0 0 0 0 0 0 0 0 0 0 0 0 0 0 0 0 0
0 0 0 0 0 0 0 0 0 0 0 0 0 0 0 0 0 0 0 0 0 0 0 0 0 0 0 0 0 0 0 0 0 0 0 0 0 0 0 0 0 0 0
0 0 0 0 0 0 0 0 0 0 0 0 0 0 0 0 0 0 0 0 0 0 0 0 0 0 0 0 0 0 0 0 0 0 0 0 0 0 0 0 0 0 0
0 0 0 0 0 0 0 0 0 0 0 0 0 0 0 0 0 0 0 0 0 0 0 0 0 0 0 0 0 0 0 0 0 0 0 0 0 0 0 0 0 0 0
0 0 0 0 0 0 0 0 0 0 0 0 0 0 0 0 0 0 0 0 0 0 0 0 0 0 0 0 0 0 0 0 0 0 0 0 0 0 0 0 0 0 0
0 0 0 0 0 0 0 0 0 0 0 0 0 0 0 0 0 0 0 0 0 0 0 0 0 0 0 0 0 0 0 0 0 0 0 0 0 0 0 0 0 0 0
0 0 0 0 0 0 0 0 0 0 0 0 0 0 0 0 0 0 0 0 0 0 0 0 0 0 0 0 0 0 0 0 0 0 0 0 0 0 0 0 0 0 0
0 0 0 0 0 0 0 0 0 0 0 0 0 0 0 0 0 0 0 0 0 0 0 0 0 0 0 0 0 0 0 0 0 0 0 0 0 0 0 0 0 0 0
0 0 0 0 0 0 0 0 0 0 0 0 0 0 0 0 0 0 0 0 0 0 0 0 0 0 0 0 0 0 0 0 0 0 0 0 0 0 0 0 0 0 0
0 0 0 0 0 0 0 0 0 0 0 0 0 0 0 0 0 0 0 0 0 0 0 0 0 0 0 0 0 0 0 0 0 0 0 0 0 0 0 0 0 0 0
0 0 0 0 0 0 0 0 0 0 0 0 0 0 0 0 0 0 0 0 0 0 0 0 0 0 0 0 0 0 0 0 0 0 0 0 0 0 0 0 0 0 0
0 0 0 0 0 0 0 0 0 0 0 0 0 0 0 0 0 0 0 0 0 0 0 0 0 0 0 0 0 0 0 0 0 0 0 0 0 0 0 0 0 0 0
0 0 0 0 0 0 0 0 0 0 0 0 0 0 0 0 0 0 0 0 0 0 0 0 0 0 0 0 0 0 0 0 0 0 0 0 0 0 0 0 0 0 0
0 0 0 0 0 0 0 0 0 0 0 0 0 0 0 0 0 0 0 0 0 0 0 0 0 0 0 0 0 0 0 0 0 0 0 0 0 0 0 0 0 0 0
0 0 0 0 0 0 0 0 0 0 0 0 0 0 0 0 0 0 0 0 0 0 0 0 0 0 0 0 0 0 0 0 0 0 0 0 0 0 0 0 0 0 0
0 0 0 0 0 0 0 0 0 0 0 0 0 0 0 0 0 0 0 0 0 0 0 0 0 0 0 0 0 0 0 0 0 0 0 0 0 0 0 0 0 0 0
0 0 0 0 0 0 0 0 0 0 0 0 0 0 0 0 0 0 0 0 0 0 0 0 0 0 0 0 0 0 0 0 0 0 0 0 0 0 0 0 0 0 0
0 0 0 0 0 0 0 0 0 0 0 0 0 0 0 0 0 0 0 0 0 0 0 0 0 0 0 0 0 0 0 0 0 0 0 0 0 0 0 0 0 0 0
0 0 0 0 0 0 0 0 0 0 0 0 0 0 0 0 0 0 0 0 0 0 0 0 0 0 0 0 0 0 0 0 0 0 0 0 0 0 0 0 0 0 0
0 0 0 0 0 0 0 0 0 0 0 0 0 0 0 0 0 0 0 0 0 0 0 0 0 0 0 0 0 0 0 0 0 0 0 0 0 0 0 0 0 0 0
0 0 0 0 0 0 0 0 0 0 0 0 0 0 0 0 0 0 0 0 0 0 0 0 0 0 0 0 0 0 0 0 0 0 0 0 0 0 0 0 0 0 0
0 0 0 0 0 0 0 0 0 0 0 0 0 0 0 0 0 0 0 0 0 0 0 0 0 0 0 0 0 0 0 0 0 0 0 0 0 0 0 0 0 0 0
0 0 0 0 0 0 0 0 0 0 0 0 0 0 0 0 0 0 0 0 0 0 0 0 0 0 0 0 0 0 0 0 0 0 0 0 0 0 0 0 0 0 0
Wind_Speed
2 3 4 4 4 5 6 6 6 5 6 6 7 7 7 7 7 7 7 6 7 7 6 6 7 5 4 4 4 4 5 5 8 6 3 3 3 4 4 4 4 5 5
2 2 3 3 3 4 5 5 5 5 5 5 5 6 6 7 7 7 7 7 7 7 7 7 7 5 6 5 4 5 5 5 6 9 5 3 4 3 4 4 4 4 5
2 2 2 2 2 3 3 3 4 4 4 4 5 5 5 6 6 6 6 6 7 7 6 6 6 5 6 4 4 4 4 4 4 6 6 4 3 3 4 4 5 4 5
1 1 2 2 2 3 3 3 3 4 4 5 5 5 4 4 4 4 5 5 5 5 4 4 3 4 4 4 3 4 3 3 4 5 5 5 4 3 3 4 5 4 5
1 2 2 2 1 1 1 2 2 3 3 4 4 4 3 3 3 3 4 5 5 4 3 3 3 3 2 2 2 3 3 3 3 4 5 5 4 3 3 3 5 6 6
2 2 2 1 1 1 1 1 2 2 2 3 3 4 4 3 3 4 4 4 4 4 4 3 2 2 2 2 2 3 3 4 5 4 4 5 5 4 4 4 5 5 6
2 2 1 1 2 2 2 2 2 2 3 3 3 3 4 4 4 4 4 4 4 3 3 3 2 1 1 1 2 2 2 2 4 4 5 5 5 4 5 5 5 5 7
2 2 2 2 2 2 2 2 2 2 3 3 4 4 3 3 4 5 4 4 3 3 2 2 2 2 1 1 1 1 1 1 2 2 3 4 4 4 4 5 5 6 6
3 3 3 2 2 2 3 2 2 2 2 2 3 3 3 3 4 5 5 3 3 3 2 2 2 2 1 1 1 1 1 1 3 3 3 4 5 6 5 3 3 4 5
4 3 3 3 3 3 3 2 1 2 2 2 2 2 3 3 4 5 5 3 3 2 2 2 1 2 2 2 2 1 1 2 2 3 3 4 4 4 5 3 3 3 4
2 2 2 2 2 2 2 2 2 2 2 2 2 1 1 2 3 4 4 3 3 3 2 2 1 2 1 1 1 1 1 1 1 1 2 2 3 3 3 3 3 3 4
1 1 1 1 2 1 2 2 2 3 3 3 2 2 1 1 1 2 3 3 3 3 3 2 1 2 2 2 1 2 2 1 0 0 1 2 2 3 3 3 4 4 4
1 1 1 1 1 2 2 3 3 3 3 3 2 2 1 1 1 2 2 3 3 2 2 2 2 2 3 2 3 3 2 1 0 0 1 2 2 3 3 3 4 4 4
2 2 1 2 2 2 1 2 2 3 3 3 3 2 2 1 1 1 2 2 3 3 3 3 4 4 3 3 2 2 1 1 0 1 2 2 3 3 3 3 3 4 4
2 2 2 2 2 2 2 1 2 2 3 4 3 3 3 3 2 2 2 2 2 2 3 2 2 1 1 1 2 1 1 1 1 1 1 2 2 3 3 3 3 3 3
2 2 2 2 2 2 2 1 2 1 2 2 2 3 1 2 3 3 3 3 4 5 3 2 2 1 1 1 1 0 1 1 1 1 1 2 2 3 3 3 3 3 4
2 2 2 2 2 2 3 3 2 2 3 2 3 3 3 4 4 3 3 4 5 5 3 2 2 2 1 1 1 0 1 1 1 1 1 2 2 3 3 3 3 3 4
1 1 1 2 2 2 3 3 2 3 2 1 1 3 3 4 4 4 4 4 3 2 2 2 2 2 2 1 1 1 1 1 1 1 1 2 2 2 3 3 3 4 5
1 1 1 1 2 2 2 2 2 3 2 2 1 1 2 3 3 3 3 2 3 3 2 2 2 2 2 2 1 1 1 1 1 1 2 2 2 2 3 3 4 5 5
1 1 1 1 2 2 2 2 2 3 3 2 2 2 2 2 2 1 1 2 2 2 2 2 2 2 2 2 2 2 2 2 2 2 2 2 2 2 3 4 4 4 4
0 1 1 1 2 2 2 3 3 3 3 3 2 3 4 3 3 3 2 2 2 3 3 3 3 2 2 2 2 2 3 2 2 2 2 2 2 2 3 3 4 4 4
1 1 1 2 2 2 2 2 3 3 3 3 2 2 4 2 2 2 2 2 2 2 2 3 2 2 3 3 3 3 3 3 3 3 3 3 3 3 3 3 4 4 4
1 1 1 1 1 2 2 2 2 3 3 3 2 2 2 2 2 2 2 2 1 1 2 2 3 2 2 2 3 3 4 4 4 4 3 3 3 3 3 4 5 5 5
1 1 1 1 1 1 2 2 2 2 2 2 2 2 2 2 2 3 2 2 2 2 2 2 3 4 4 3 2 3 3 4 3 3 4 4 4 4 4 4 5 5 6
0 1 1 1 1 1 2 2 2 2 2 2 2 2 2 2 2 2 2 2 2 2 3 3 3 3 4 5 4 4 5 6 5 4 3 4 4 5 5 5 5 5 5
0 0 0 1 1 1 2 2 2 2 2 2 2 2 2 2 2 2 2 2 2 3 3 3 4 4 5 4 5 6 6 7 6 6 4 4 5 5 5 4 5 5 6
Wind_Direction
231 223 217 219 218 214 212 212 211 209 205 202 199 198 198 200 200 202 207 204 211 218 217 222 229 228 230 232 230 232 237 240 259 272 267 282 280 284 295 288 283 280 283
225 228 229 225 216 218 216 212 206 205 200 196 193 192 195 196 197 200 206 208 213 217 219 221 228 225 229 232 232 236 240 239 252 270 278 279 278 279 288 292 295 296 291
223 217 225 228 222 223 227 218 204 197 194 189 187 190 192 193 194 198 203 209 214 218 218 219 224 224 230 234 237 242 250 257 257 268 279 285 287 296 301 298 298 297 301
231 212 223 231 230 231 231 225 208 192 187 187 188 189 187 182 183 190 199 205 209 212 210 209 215 218 226 235 237 246 254 258 261 268 275 283 286 297 302 298 304 304 300
250 235 236 241 236 234 235 225 212 194 188 185 180 176 170 171 176 178 189 196 196 197 195 194 200 200 209 219 235 250 251 251 255 261 268 279 283 299 297 296 296 301 294
225 236 241 228 221 218 223 217 197 188 179 168 172 170 169 171 163 167 178 190 189 188 190 191 185 186 198 208 228 243 240 245 255 258 266 274 285 295 301 303 303 306 298
232 236 229 209 213 212 199 188 192 195 180 175 174 169 174 175 160 162 173 182 184 189 190 186 177 157 192 227 237 245 264 274 261 260 270 275 287 296 301 297 291 287 283
230 233 223 205 209 207 191 189 198 194 186 185 179 175 173 173 156 157 160 175 175 179 187 188 178 168 192 222 229 241 266 297 310 296 283 292 298 302 291 284 286 290 285
244 240 234 215 204 195 195 195 194 184 191 185 173 169 172 172 158 156 154 171 167 168 168 173 179 182 190 170 191 226 276 344 8 348 326 327 333 332 326 319 314 308 298
248 244 235 211 202 200 198 190 178 174 178 152 148 155 159 166 158 157 153 165 167 168 157 149 168 187 172 151 187 208 256 309 347 348 349 347 342 342 338 320 298 295 299
263 243 227 211 204 196 177 165 155 148 140 137 127 111 126 145 154 155 154 170 172 167 172 171 165 152 162 152 174 220 261 314 331 332 337 344 345 341 337 330 316 293 286
260 228 215 209 198 176 161 158 156 150 149 148 139 129 100 91 116 150 148 165 156 160 171 165 149 135 129 107 102 91 73 47 48 352 328 327 332 331 330 327 319 306 287
247 219 198 167 164 169 170 167 163 161 163 165 163 170 160 119 108 98 118 127 120 113 122 125 113 98 82 83 86 81 72 88 80 321 301 307 317 317 321 321 319 316 307
213 210 185 167 164 160 168 164 169 176 175 172 176 181 173 156 144 136 129 115 107 103 104 101 90 81 67 65 68 60 52 47 19 287 301 309 318 320 321 322 318 325 319
201 204 190 180 175 156 145 157 177 190 187 183 184 179 174 186 199 175 146 148 154 146 119 108 98 90 76 65 56 52 50 40 15 328 312 310 314 320 323 330 322 321 310
200 202 195 184 171 156 147 122 105 125 126 156 159 158 161 163 159 149 135 139 137 131 117 135 142 144 147 129 107 39 33 24 348 328 312 307 309 313 317 322 321 312 306
216 215 202 186 174 171 171 163 151 91 91 112 137 145 147 148 147 146 137 134 130 123 120 154 173 180 182 178 182 199 291 313 318 303 302 310 315 315 315 316 318 315 308
235 220 199 187 181 181 179 171 167 169 167 167 125 135 140 143 147 144 133 120 128 125 154 178 192 199 197 196 197 215 246 286 299 294 294 297 296 298 302 303 305 305 305
243 223 197 183 176 175 173 167 169 175 176 174 155 144 138 139 134 138 134 149 171 181 187 190 194 198 202 205 209 210 222 244 260 268 272 277 286 291 291 296 299 302 303
260 202 190 184 174 173 172 176 180 181 181 183 189 188 164 143 157 179 186 180 185 198 198 197 200 198 195 195 201 203 216 235 247 255 261 269 277 282 285 290 293 300 301
216 187 175 183 190 187 184 187 190 192 197 201 211 210 192 182 194 201 206 204 205 207 203 199 199 199 198 196 200 206 216 231 237 245 254 262 268 275 279 283 289 292 296
223 207 197 197 193 190 193 195 195 198 199 203 211 207 201 185 194 204 211 220 220 215 203 194 203 210 208 205 204 208 218 228 234 238 249 257 261 265 272 279 284 290 290
216 212 207 199 192 186 193 199 198 200 200 199 196 205 208 204 203 206 214 220 216 215 207 199 207 219 218 219 219 214 220 229 229 226 235 249 256 260 264 271 278 285 285
235 213 209 206 195 193 201 207 210 208 202 199 201 208 213 215 211 209 210 209 208 217 218 216 218 222 228 233 237 237 233 236 233 228 227 237 250 258 261 267 273 277 280
277 240 223 213 211 213 215 216 215 213 209 208 208 211 214 214 217 219 214 208 213 224 232 231 227 226 232 238 241 241 244 252 250 237 230 231 242 250 256 263 270 277 280
355 319 269 233 224 219 214 215 217 217 219 222 222 220 220 223 225 224 219 215 217 226 235 236 231 234 239 243 244 248 252 255 251 242 231 229 236 247 252 261 266 272 276